Date,TemperatureHighF,TemperatureAvgF,TemperatureLowF,DewpointHighF,DewpointAvgF,DewpointLowF,HumidityHigh,HumidityAvg,HumidityLow,PressureMaxIn,PressureMinIn,WindSpeedMaxMPH,WindSpeedAvgMPH,GustSpeedMaxMPH,PrecipitationSumIn
2014-1-1,59.4,44.3,33.1,39.6,32.6,27.0,79,65,46,30.20,30.11,3,0,3,0.00
2014-1-2,60.7,45.3,33.7,43.2,34.9,28.1,81,68,49,30.18,30.03,3,0,3,0.00
2014-1-3,62.3,47.0,35.5,44.2,36.8,30.2,82,69,50,30.07,29.93,3,0,3,0.00
2014-1-4,62.6,45.2,34.0,43.6,33.4,26.1,84,65,37,30.08,29.96,5,0,5,0.00
2014-1-5,60.8,43.9,32.2,40.8,31.8,26.0,79,64,41,30.20,30.08,4,0,4,0.00
2014-1-6,60.5,46.6,35.1,41.2,33.9,28.3,77,63,44,30.28,30.14,3,0,3,0.00
2014-1-7,61.6,47.4,36.9,41.4,34.6,30.1,77,62,45,30.19,30.08,4,0,4,0.00
2014-1-8,58.3,50.5,43.9,47.8,41.9,32.5,80,73,63,30.21,30.09,5,1,5,0.00
2014-1-9,60.3,50.8,42.8,49.6,43.6,37.7,85,77,66,30.22,30.13,6,1,6,0.00
2014-1-10,59.8,46.8,36.2,46.5,39.6,32.6,89,77,60,30.29,30.15,4,0,4,0.00
2014-1-11,55.6,50.2,42.3,49.1,44.1,36.5,86,79,72,30.24,30.10,9,2,9,0.04
2014-1-12,58.3,47.2,36.4,43.5,37.9,33.1,90,72,48,30.38,30.23,8,2,8,0.00
2014-1-13,58.9,45.8,34.4,44.2,36.4,28.7,81,70,57,30.47,30.31,3,1,3,0.00
2014-1-14,60.5,44.8,31.5,44.1,35.6,27.5,87,71,49,30.47,30.33,3,0,3,0.00
2014-1-15,62.5,46.9,35.8,45.2,36.9,30.4,81,69,52,30.37,30.20,3,0,3,0.00
2014-1-16,63.0,46.4,31.3,43.3,34.3,25.3,80,64,46,30.25,30.11,3,0,3,0.00
2014-1-17,65.3,47.1,32.9,41.8,32.8,25.5,77,59,37,30.21,30.10,4,0,4,0.00
2014-1-18,62.5,46.0,31.7,39.8,32.2,24.7,76,60,41,30.17,30.05,5,1,5,0.00
2014-1-19,65.0,46.2,32.0,40.3,32.4,25.2,76,60,39,30.15,30.05,4,0,4,0.00
2014-1-20,64.3,45.4,31.3,37.9,30.0,23.9,74,57,34,30.23,30.10,3,0,3,0.00
2014-1-21,65.2,45.7,31.5,38.4,30.0,23.2,72,56,34,30.26,30.13,5,0,5,0.00
2014-1-22,62.6,45.7,30.8,35.9,29.1,22.5,71,54,34,30.15,29.90,4,0,4,0.00
2014-1-23,65.7,50.7,33.7,37.1,31.0,24.8,71,49,29,30.01,29.86,13,1,13,0.00
2014-1-24,71.8,54.2,41.4,40.4,33.0,27.8,68,46,26,30.23,30.01,3,0,3,0.00
2014-1-25,68.0,51.6,38.0,39.2,31.8,26.1,68,49,30,30.24,30.09,5,1,5,0.00
2014-1-26,63.5,49.7,37.8,39.0,32.3,27.6,67,52,37,30.13,30.00,5,1,5,0.00
2014-1-27,65.9,51.1,37.8,40.7,34.9,27.9,71,55,38,30.15,30.02,3,0,3,0.00
2014-1-28,69.1,57.2,48.6,44.6,40.0,37.0,66,54,39,30.23,30.14,4,0,4,0.00
2014-1-29,60.5,56.8,49.9,56.2,51.1,38.1,89,82,61,30.16,29.94,8,2,8,0.14
2014-1-30,63.4,54.8,49.7,52.6,48.6,42.4,90,80,60,29.94,29.80,10,1,10,0.13
2014-1-31,56.5,47.0,36.7,47.3,37.7,28.4,90,72,44,30.03,29.86,6,1,6,0.03
2014-2-1,56.2,42.3,29.3,37.3,30.3,24.9,84,64,44,30.13,30.02,5,1,5,0.00
2014-2-2,56.2,46.7,39.2,40.6,34.8,27.4,73,63,55,30.04,29.89,6,1,6,0.00
2014-2-3,55.8,45.9,37.3,40.8,35.7,29.7,81,68,53,30.04,29.95,7,1,7,0.00
2014-2-4,56.5,43.4,32.0,39.6,33.2,26.9,83,68,51,30.14,30.03,5,0,5,0.00
2014-2-5,58.1,46.1,31.7,41.1,35.3,26.1,82,67,53,30.18,30.06,6,1,6,0.01
2014-2-6,52.4,47.9,43.7,46.7,43.1,39.2,88,83,72,30.07,29.92,9,2,9,0.32
2014-2-7,52.4,49.6,47.3,48.7,46.1,43.7,90,88,85,30.09,29.97,16,5,16,0.33
2014-2-8,55.6,53.7,50.4,53.5,51.0,47.3,93,91,89,30.12,30.03,13,7,16,1.78
2014-2-9,58.3,56.8,55.1,56.0,54.5,53.1,93,92,89,30.12,30.02,12,5,12,0.99
2014-2-10,64.1,57.1,50.0,57.6,53.4,47.3,93,88,77,30.25,30.06,7,1,7,0.06
2014-2-11,63.0,53.1,43.2,55.3,48.9,41.0,94,86,74,30.21,30.13,4,0,4,0.00
2014-2-12,67.7,60.6,47.7,56.7,51.7,44.8,90,73,61,30.23,30.13,6,2,6,0.00
2014-2-13,71.3,60.8,55.1,58.5,52.9,48.0,85,76,63,30.20,30.06,8,1,8,0.00
2014-2-14,68.4,60.9,54.5,59.1,54.6,50.4,88,80,69,30.13,30.00,7,2,7,0.00
2014-2-15,62.3,57.5,54.4,54.8,52.0,49.8,88,82,74,30.02,29.90,7,2,7,0.07
2014-2-16,62.8,54.3,42.8,52.7,45.8,36.7,92,74,51,30.18,29.98,5,1,5,0.00
2014-2-17,63.9,49.2,37.6,48.2,40.3,34.0,88,73,51,30.14,30.05,6,1,6,0.00
2014-2-18,65.3,51.3,38.7,47.7,41.5,34.3,87,71,47,30.17,30.01,5,1,5,0.00
2014-2-19,63.7,54.4,42.5,53.4,43.2,32.8,87,67,40,30.17,30.02,8,2,8,0.00
2014-2-20,64.6,50.6,38.9,44.0,38.2,32.3,82,64,44,30.18,30.08,7,1,7,0.00
2014-2-21,66.4,52.2,38.2,47.7,40.3,32.9,83,65,46,30.09,29.94,4,0,4,0.00
2014-2-22,67.5,53.1,39.4,48.8,41.5,33.9,83,66,48,29.99,29.87,0,0,0,0.00
2014-2-23,68.9,54.1,40.5,50.2,42.7,35.4,85,67,46,29.99,29.91,0,0,0,0.00
2014-2-24,70.2,55.4,40.9,49.2,42.4,35.5,83,64,42,29.99,29.88,0,0,0,0.00
2014-2-25,70.9,57.2,43.0,51.4,44.2,36.7,81,63,48,29.94,29.83,0,0,0,0.00
2014-2-26,65.2,57.0,52.9,54.9,49.2,43.2,89,76,59,29.95,29.66,0,0,0,0.46
2014-2-27,65.5,56.7,51.3,55.7,50.0,45.7,89,79,61,29.89,29.59,0,0,0,0.08
2014-2-28,57.8,52.8,49.5,54.3,48.5,42.3,92,86,65,29.60,29.38,0,0,0,1.65
2014-3-1,70.7,58.7,49.0,50.7,47.5,45.5,90,68,45,29.84,29.52,0,0,0,0.01
2014-3-2,62.1,55.5,49.0,54.5,49.7,43.7,89,81,65,30.15,29.82,0,0,0,0.11
2014-3-3,61.7,55.1,50.4,54.6,50.9,47.3,91,86,73,30.15,30.04,0,0,0,0.17
2014-3-4,66.8,57.8,52.0,57.4,52.8,48.5,92,84,70,30.12,30.02,0,0,0,0.17
2014-3-5,70.9,61.5,53.3,60.0,55.4,50.1,92,81,64,30.08,29.93,0,0,0,0.40
2014-3-6,70.9,60.5,49.3,57.6,52.8,44.3,92,77,53,30.15,30.00,0,0,0,0.02
2014-3-7,68.6,55.8,45.0,51.5,46.3,41.7,90,72,49,30.14,30.03,0,0,0,0.00
2014-3-8,71.6,57.9,42.7,53.6,46.8,38.4,86,68,49,30.19,30.07,0,0,0,0.00
2014-3-9,72.2,63.1,55.6,57.1,53.3,49.1,82,71,58,30.18,30.04,0,0,0,0.00
2014-3-10,65.9,60.1,51.1,55.5,48.2,40.9,87,66,43,30.20,30.02,0,0,0,0.28
2014-3-11,71.8,57.5,44.6,45.3,36.0,22.1,72,49,18,30.16,29.97,0,0,0,0.00
2014-3-12,74.2,58.3,44.8,42.4,34.2,27.4,59,42,22,30.15,29.97,0,0,0,0.00
2014-3-13,73.8,57.8,42.1,43.5,36.7,31.5,68,48,25,30.03,29.91,0,0,0,0.00
2014-3-14,72.2,58.9,45.4,46.5,40.4,34.0,68,51,36,30.18,29.98,0,0,0,0.00
2014-3-15,75.1,59.6,43.7,52.4,44.2,37.6,81,59,36,30.28,30.16,0,0,0,0.00
2014-3-16,79.2,62.9,47.2,54.3,46.6,39.5,78,57,38,30.28,30.08,0,0,0,0.00
2014-3-17,67.9,58.4,49.9,46.8,40.3,34.5,71,52,34,30.11,29.92,0,0,0,0.00
2014-3-18,69.8,56.2,43.6,40.5,36.5,32.9,66,50,31,29.94,29.85,0,0,0,0.00
2014-3-19,74.5,58.2,42.1,49.2,41.8,34.3,77,56,39,30.08,29.92,0,0,0,0.00
2014-3-20,75.4,61.0,49.5,49.2,44.4,40.3,74,56,37,30.02,29.87,0,0,0,0.00
2014-3-21,74.7,59.4,43.7,51.4,42.9,37.0,78,57,32,29.93,29.84,0,0,0,0.00
2014-3-22,73.1,59.0,42.3,50.1,43.3,35.7,79,58,35,30.04,29.90,0,0,0,0.00
2014-3-23,74.7,59.3,43.6,49.4,42.8,35.8,77,57,35,30.13,30.02,0,0,0,0.00
2014-3-24,78.5,61.0,43.7,50.2,43.1,37.6,80,55,31,30.11,29.95,0,0,0,0.00
2014-3-25,70.2,58.7,50.0,53.1,44.4,36.6,82,60,41,29.97,29.78,0,0,0,0.14
2014-3-26,58.7,53.8,50.4,52.8,48.6,45.9,86,83,73,29.92,29.77,0,0,0,0.39
2014-3-27,66.2,56.8,50.0,52.7,48.4,45.6,87,74,56,30.12,29.92,0,0,0,0.01
2014-3-28,72.7,62.2,53.6,54.9,50.3,46.6,85,66,49,30.17,30.05,0,0,0,0.02
2014-3-29,60.1,56.0,48.4,53.7,50.2,44.4,89,81,66,30.09,29.95,0,0,0,0.86
2014-3-30,67.3,54.6,42.8,52.2,45.0,39.7,90,72,48,30.08,29.97,0,0,0,0.00
2014-3-31,60.8,51.0,45.0,47.5,42.8,40.0,88,74,51,30.04,29.77,0,0,0,0.21
2014-4-1,54.5,47.4,43.4,48.3,43.6,40.1,90,87,75,29.95,29.82,0,0,0,0.82
2014-4-2,62.6,51.8,42.8,50.3,44.7,40.1,92,78,58,30.05,29.87,0,0,0,0.09
2014-4-3,70.6,55.9,43.6,50.8,44.5,39.8,88,68,43,30.10,29.97,0,0,0,0.00
2014-4-4,65.7,54.1,46.8,51.0,45.5,41.0,84,73,56,30.02,29.95,0,0,0,0.07
2014-4-5,69.5,54.8,39.2,52.2,44.0,35.6,89,69,43,30.14,30.01,0,0,0,0.00
2014-4-6,79.2,61.7,44.5,54.8,48.0,39.6,85,64,38,30.19,30.04,0,0,0,0.00
2014-4-7,81.2,65.3,48.6,59.0,52.2,43.3,83,65,46,30.15,30.02,0,0,0,0.00
2014-4-8,83.5,68.0,52.7,59.1,53.8,46.4,80,63,40,30.10,29.96,0,0,0,0.00
2014-4-9,83.5,68.7,53.3,58.7,52.7,46.8,81,58,41,30.02,29.90,0,0,0,0.00
2014-4-10,81.9,66.1,50.0,58.0,50.7,44.7,85,60,36,29.98,29.82,0,0,0,0.00
2014-4-11,84.4,68.4,54.2,58.8,52.3,46.3,77,58,36,29.87,29.75,0,0,0,0.00
2014-4-12,77.6,63.8,51.1,56.6,51.5,46.0,84,66,47,29.87,29.75,0,0,0,0.00
2014-4-13,80.3,62.8,50.6,58.5,48.2,42.6,84,63,28,30.00,29.87,0,0,0,0.00
2014-4-14,82.6,64.9,43.9,54.9,47.3,37.5,78,56,34,30.06,29.94,0,0,0,0.00
2014-4-15,82.1,68.3,54.7,54.2,50.6,46.5,75,55,35,29.98,29.81,0,0,0,0.00
2014-4-16,81.7,66.9,50.9,55.8,49.4,44.0,77,56,33,29.86,29.74,0,0,0,0.00
2014-4-17,86.9,70.2,52.6,57.0,51.6,45.9,80,55,31,29.78,29.70,0,0,0,0.00
2014-4-18,82.4,69.0,54.4,55.9,52.0,46.6,78,56,38,29.85,29.76,0,0,0,0.00
2014-4-19,79.2,66.5,53.8,50.8,47.1,42.5,71,52,28,30.05,29.84,0,0,0,0.00
2014-4-20,82.6,66.4,47.9,54.2,48.1,41.9,80,55,26,30.09,29.96,0,0,0,0.00
2014-4-21,79.4,67.7,56.9,47.7,43.5,35.0,64,44,24,30.00,29.86,0,0,0,0.00
2014-4-22,74.5,62.5,52.6,47.3,42.5,34.5,75,50,29,30.04,29.87,0,0,0,0.00
2014-4-23,73.6,60.1,43.6,46.2,40.6,36.2,77,51,30,30.10,29.99,0,0,0,0.00
2014-4-24,78.5,64.6,51.5,54.1,47.9,39.4,78,56,35,30.05,29.89,0,0,0,0.04
2014-4-25,60.7,55.0,49.1,53.6,49.6,44.9,87,82,73,29.92,29.72,0,0,0,1.13
2014-4-26,68.8,56.1,43.9,52.4,45.6,41.0,91,70,46,30.02,29.80,0,0,0,0.02
2014-4-27,72.5,59.3,50.2,53.2,46.7,41.0,79,64,46,30.08,29.99,0,0,0,0.00
2014-4-28,76.3,61.6,45.2,53.0,44.9,39.7,85,58,28,30.18,30.07,0,0,0,0.00
2014-4-29,88.4,68.5,46.6,53.7,47.4,40.5,80,51,24,30.15,29.98,0,0,0,0.00
2014-4-30,90.9,72.0,50.9,54.4,46.8,39.9,69,45,19,30.08,29.96,0,0,0,0.00
2014-5-1,94.0,76.2,59.9,53.1,47.8,38.6,61,39,22,30.07,29.98,0,0,0,0.00
2014-5-2,91.6,74.3,54.9,53.2,45.3,36.9,67,39,17,30.02,29.89,0,0,0,0.00
2014-5-3,81.0,68.4,58.0,53.0,47.4,40.9,71,49,29,29.96,29.85,0,0,0,0.00
2014-5-4,80.6,66.3,54.2,52.1,49.1,45.7,75,56,34,30.00,29.89,0,0,0,0.00
2014-5-5,76.9,63.4,53.6,51.0,47.8,43.3,84,60,33,29.97,29.82,0,0,0,0.37
2014-5-6,74.9,63.1,53.3,55.1,48.9,42.9,88,63,34,29.88,29.75,0,0,0,0.01
2014-5-7,79.2,65.5,51.3,52.8,47.7,44.1,77,55,33,29.92,29.80,0,0,0,0.00
2014-5-8,76.5,65.2,55.8,55.5,50.4,45.8,79,60,40,30.03,29.92,0,0,0,0.00
2014-5-9,79.4,67.4,56.7,56.6,51.6,45.5,85,60,35,30.09,29.98,0,0,0,0.00
2014-5-10,75.4,63.1,49.5,50.9,43.3,35.4,78,51,25,30.06,29.95,0,0,0,0.00
2014-5-11,79.9,65.3,50.0,43.3,39.7,35.8,61,42,24,30.07,29.94,0,0,0,0.00
2014-5-12,88.2,70.4,48.2,45.7,40.6,35.0,67,38,17,30.09,29.97,0,0,0,0.00
2014-5-13,94.0,74.8,53.1,52.8,45.9,38.0,67,40,16,30.12,30.01,0,0,0,0.00
2014-5-14,96.3,77.9,58.0,52.7,48.6,41.9,65,39,18,30.10,29.96,0,0,0,0.00
2014-5-15,99.9,80.8,60.1,57.2,49.0,38.4,66,37,13,30.05,29.95,0,0,0,0.00
2014-5-16,94.0,78.7,64.1,48.9,43.2,34.0,51,32,13,30.00,29.86,0,0,0,0.00
2014-5-17,87.5,73.0,60.5,53.0,48.9,42.1,59,44,30,29.91,29.81,0,0,0,0.00
2014-5-18,84.2,70.9,59.0,51.3,47.9,44.7,60,46,28,29.91,29.81,0,0,0,0.00
2014-5-19,81.0,67.1,57.4,52.1,47.9,45.1,67,52,31,29.89,29.79,0,0,0,0.00
2014-5-20,76.7,64.5,53.8,52.8,49.4,45.4,76,59,40,29.97,29.86,0,0,0,0.00
2014-5-21,86.4,70.7,52.2,56.0,51.8,46.1,81,54,32,29.92,29.79,0,0,0,0.00
2014-5-22,92.2,75.7,58.0,58.5,53.0,48.2,72,48,27,29.91,29.81,0,0,0,0.00
2014-5-23,92.3,78.4,61.6,58.3,54.8,50.7,69,46,29,29.96,29.79,0,0,0,0.00
2014-5-24,94.1,80.6,64.6,60.5,56.7,52.5,67,46,30,29.90,29.79,0,0,0,0.00
2014-5-25,96.8,81.4,62.6,59.5,54.3,50.0,69,42,23,29.89,29.78,0,0,0,0.00
2014-5-26,95.8,81.2,63.0,57.4,51.7,45.5,66,38,21,29.94,29.83,0,0,0,0.00
2014-5-27,91.8,77.3,62.3,51.8,44.8,34.7,48,34,16,29.96,29.85,0,0,0,0.00
2014-5-28,83.2,70.1,53.8,45.7,37.3,24.0,64,34,13,30.01,29.88,0,0,0,0.00
2014-5-29,90.4,71.3,49.3,44.3,39.0,33.8,63,35,16,29.89,29.80,0,0,0,0.00
2014-5-30,91.6,74.7,59.4,45.7,38.3,26.6,52,30,11,29.87,29.80,0,0,0,0.00
2014-5-31,89.5,71.5,52.9,52.2,45.6,38.9,76,44,20,29.92,29.81,0,0,0,0.00
2014-6-1,95.8,76.4,53.5,49.1,42.9,39.3,63,34,15,29.85,29.70,0,0,0,0.00
2014-6-2,92.0,76.1,61.7,51.0,45.1,37.5,59,36,18,29.83,29.73,0,0,0,0.00
2014-6-3,90.0,72.3,54.0,55.4,49.5,44.5,79,48,28,29.90,29.76,0,0,0,0.00
2014-6-4,96.5,78.6,55.4,57.3,51.7,46.0,72,43,20,29.83,29.70,0,0,0,0.00
2014-6-5,100.3,83.9,66.2,55.3,51.8,45.0,58,35,20,29.79,29.65,0,0,0,0.00
2014-6-6,97.0,82.4,65.0,56.3,50.1,41.2,48,34,23,29.77,29.65,0,0,0,0.00
2014-6-7,98.8,82.4,63.2,59.2,53.9,48.1,62,40,19,29.77,29.65,0,0,0,0.00
2014-6-8,105.1,86.7,65.3,60.5,54.5,48.3,67,37,16,29.76,29.64,0,0,0,0.00
2014-6-9,107.6,88.5,67.9,60.9,51.6,38.2,60,33,11,29.70,29.57,0,0,0,0.00
2014-6-10,104.6,86.7,66.4,58.7,52.7,46.4,56,34,17,29.68,29.56,0,0,0,0.00
2014-6-11,90.9,75.4,60.8,57.9,54.3,49.5,73,51,30,29.80,29.67,0,0,0,0.00
2014-6-12,88.7,72.2,55.4,53.2,50.1,45.5,80,50,23,29.89,29.79,0,0,0,0.00
2014-6-13,88.4,74.4,57.1,52.9,45.6,34.3,67,40,16,29.92,29.84,0,0,0,0.00
2014-6-14,92.7,76.7,56.5,50.0,43.7,35.1,53,33,16,29.87,29.73,0,0,0,0.00
2014-6-15,90.5,75.7,61.0,51.0,46.7,40.1,54,38,24,29.75,29.66,0,0,0,0.00
2014-6-16,85.5,71.3,58.0,50.6,47.7,43.3,66,45,27,29.82,29.70,0,0,0,0.00
2014-6-17,87.1,71.7,54.2,50.3,43.5,37.1,64,39,21,29.90,29.79,0,0,0,0.00
2014-6-18,94.9,76.8,53.6,49.2,40.7,32.6,59,32,12,29.89,29.82,0,0,0,0.00
2014-6-19,98.8,83.6,59.6,47.8,40.6,32.0,47,24,12,29.93,29.84,0,0,0,0.00
2014-6-20,100.4,83.1,60.5,52.3,45.6,35.7,53,30,12,29.92,29.79,0,0,0,0.00
2014-6-21,99.7,82.2,66.2,54.0,43.5,32.1,39,26,17,29.84,29.74,0,0,0,0.00
2014-6-22,97.6,79.4,59.8,51.8,47.3,42.2,59,35,17,29.87,29.76,0,0,0,0.00
2014-6-23,98.1,80.4,59.0,55.4,50.4,40.3,67,39,15,29.89,29.78,0,0,0,0.00
2014-6-24,98.8,83.3,65.9,55.0,51.3,48.0,54,35,20,29.90,29.81,0,0,0,0.00
2014-6-25,92.5,77.9,65.7,59.9,55.4,51.4,62,47,31,29.89,29.83,0,0,0,0.00
2014-6-26,89.1,75.4,64.4,57.4,54.1,50.3,72,51,28,29.92,29.84,0,0,0,0.00
2014-6-27,95.2,78.8,61.9,60.3,56.3,52.8,75,50,25,29.90,29.80,0,0,0,0.00
2014-6-28,95.0,79.5,62.6,59.0,53.3,32.1,76,46,13,29.89,29.79,0,0,0,0.00
2014-6-29,100.6,84.0,63.4,59.9,54.6,48.9,62,39,22,29.89,29.74,0,0,0,0.00
2014-6-30,106.2,88.5,65.5,60.5,56.0,51.8,65,37,19,29.79,29.64,0,0,0,0.00
2014-7-1,103.1,87.1,71.6,57.2,49.6,39.6,47,30,15,29.74,29.66,0,0,0,0.00
2014-7-2,100.3,82.8,63.7,60.4,54.5,47.3,65,40,22,29.81,29.71,0,0,0,0.00
2014-7-3,100.3,83.4,65.2,62.4,56.1,51.6,63,42,24,29.86,29.75,0,0,0,0.00
2014-7-4,104.8,86.1,66.6,57.4,46.3,27.4,57,31,8,29.89,29.80,0,0,0,0.00
2014-7-5,102.6,84.9,64.8,52.5,43.0,34.2,44,26,10,30.00,29.88,0,0,0,0.00
2014-7-6,104.0,85.0,61.0,53.5,46.3,32.6,55,29,7,29.98,29.82,0,0,0,0.00
2014-7-7,104.9,87.1,66.4,53.7,48.9,41.2,49,29,14,29.85,29.74,0,0,0,0.00
2014-7-8,104.8,89.5,75.6,57.3,51.4,47.1,46,29,17,29.84,29.75,0,0,0,0.00
2014-7-9,100.8,84.5,68.4,62.0,55.8,51.9,59,39,22,29.88,29.74,0,0,0,0.00
2014-7-10,97.4,81.4,66.1,61.6,55.0,43.7,67,43,21,29.87,29.75,0,0,0,0.02
2014-7-11,96.5,79.9,65.0,57.7,54.7,50.8,67,45,25,29.97,29.86,0,0,0,0.00
2014-7-12,97.9,80.6,62.5,59.7,54.9,51.4,72,45,23,30.02,29.86,0,0,0,0.04
2014-7-13,103.3,84.6,63.7,63.2,57.3,52.4,69,43,23,29.95,29.77,0,0,0,0.00
2014-7-14,110.9,90.1,68.9,64.5,57.0,41.8,66,37,15,29.82,29.75,0,0,0,0.00
2014-7-15,100.6,86.5,72.5,61.5,55.7,48.9,51,36,22,29.92,29.82,0,0,0,0.00
2014-7-16,96.7,81.4,68.9,61.8,58.4,54.5,65,47,31,29.94,29.82,0,0,0,0.00
2014-7-17,93.6,77.4,64.1,63.5,58.6,54.4,77,55,35,29.95,29.82,0,0,0,0.00
2014-7-18,94.5,77.7,61.6,62.0,57.0,53.0,79,52,31,29.95,29.81,0,0,0,0.00
2014-7-19,100.3,82.0,63.7,62.6,57.3,51.8,72,46,26,29.90,29.79,0,0,0,0.00
2014-7-20,92.7,76.6,68.4,61.3,56.4,52.2,61,50,32,29.90,29.82,0,0,0,0.00
2014-7-21,94.3,79.0,66.8,63.1,58.9,55.4,72,52,33,29.99,29.89,0,0,0,0.00
2014-7-22,93.4,77.8,65.7,63.5,58.6,55.7,74,54,35,30.04,29.92,0,0,0,0.00
2014-7-23,91.1,76.5,61.6,60.4,55.6,46.4,80,52,25,30.10,29.92,0,0,0,0.00
2014-7-24,97.9,80.8,61.2,60.2,55.5,50.9,73,45,23,29.97,29.75,0,0,0,0.00
2014-7-25,103.9,84.1,62.8,58.2,50.2,40.5,65,35,14,29.84,29.74,0,0,0,0.00
2014-7-26,107.1,87.3,65.9,53.9,47.5,38.4,52,28,13,29.89,29.79,0,0,0,0.00
2014-7-27,100.8,88.2,76.9,59.1,50.4,43.4,38,28,15,29.92,29.82,0,0,0,0.00
2014-7-28,101.2,86.3,70.6,59.5,49.8,37.2,44,30,13,29.96,29.87,0,0,0,0.00
2014-7-29,103.5,87.0,72.4,58.5,49.2,40.0,45,29,16,30.00,29.85,0,0,0,0.00
2014-7-30,105.8,89.9,71.6,58.1,52.9,47.7,50,30,17,29.94,29.82,0,0,0,0.00
2014-7-31,107.5,90.7,72.4,60.3,54.6,48.6,51,32,16,29.90,29.75,0,0,0,0.00
2014-8-1,109.1,90.9,70.2,59.9,52.8,41.9,58,31,11,29.84,29.73,0,0,0,0.00
2014-8-2,106.4,88.8,73.3,56.8,51.5,38.4,46,31,10,29.85,29.75,0,0,0,0.00
2014-8-3,92.5,78.7,65.9,61.7,56.3,52.4,66,47,33,29.91,29.81,0,0,0,0.00
2014-8-4,82.6,74.0,66.6,64.4,58.6,53.4,71,59,46,29.93,29.86,0,0,0,0.00
2014-8-5,79.7,75.3,71.8,67.0,64.4,60.8,80,69,62,30.03,29.90,0,0,0,0.00
2014-8-6,95.9,81.8,68.4,71.7,65.8,60.0,88,62,36,29.98,29.84,0,0,0,0.10
2014-8-7,99.0,84.4,69.5,65.9,60.7,55.6,65,47,30,29.90,29.74,0,0,0,0.00
2014-8-8,100.3,83.6,67.9,60.7,56.4,52.8,60,42,25,29.86,29.73,0,0,0,0.00
2014-8-9,97.0,81.5,66.6,58.2,53.7,50.0,56,40,25,29.89,29.78,0,0,0,0.00
2014-8-10,94.7,76.3,59.4,60.1,54.8,50.7,77,50,28,29.95,29.84,0,0,0,0.00
2014-8-11,99.0,81.9,64.3,60.9,54.5,44.9,68,42,25,29.89,29.77,0,0,0,0.00
2014-8-12,94.3,78.6,64.3,59.4,52.2,44.2,69,42,25,29.92,29.82,0,0,0,0.00
2014-8-13,94.7,77.0,60.1,60.0,56.1,49.1,77,51,30,29.93,29.83,0,0,0,0.00
2014-8-14,95.4,79.4,65.9,59.9,54.8,46.4,66,46,24,29.90,29.80,0,0,0,0.00
2014-8-15,99.0,82.9,67.3,58.8,52.6,40.9,58,38,24,29.94,29.84,0,0,0,0.00
2014-8-16,98.8,82.3,64.6,58.7,49.2,40.4,58,34,19,29.97,29.86,0,0,0,0.00
2014-8-17,97.6,80.9,63.5,55.1,47.9,40.1,55,34,16,29.95,29.79,0,0,0,0.00
2014-8-18,95.0,79.4,62.1,58.7,53.9,48.2,70,44,26,29.83,29.67,0,0,0,0.00
2014-8-19,91.4,74.8,59.8,60.9,56.6,52.8,81,56,34,29.80,29.68,0,0,0,0.00
2014-8-20,86.6,73.1,61.6,60.8,57.4,55.1,83,60,39,29.87,29.76,0,0,0,0.00
2014-8-21,92.9,77.2,60.1,62.7,57.7,52.9,79,54,34,29.92,29.81,0,0,0,0.00
2014-8-22,92.5,79.3,66.8,61.6,56.9,54.0,67,48,30,29.86,29.77,0,0,0,0.00
2014-8-23,93.6,76.4,58.1,59.2,54.3,47.4,78,50,29,29.89,29.74,0,0,0,0.00
2014-8-24,94.7,78.8,64.4,59.2,54.6,50.9,65,45,27,29.83,29.67,0,0,0,0.00
2014-8-25,88.0,74.0,61.0,59.4,55.8,52.3,78,55,36,29.86,29.75,0,0,0,0.00
2014-8-26,91.8,76.7,61.6,60.4,56.0,52.1,73,51,34,29.96,29.83,0,0,0,0.00
2014-8-27,96.5,81.5,66.6,61.2,55.0,50.2,59,42,27,30.02,29.89,0,0,0,0.00
2014-8-28,98.3,82.5,67.7,60.2,54.0,50.0,55,39,24,30.00,29.82,0,0,0,0.00
2014-8-29,93.2,79.8,67.3,62.1,55.9,50.8,61,45,32,29.89,29.76,0,0,0,0.00
2014-8-30,97.7,82.7,66.6,57.5,52.7,42.6,60,38,17,29.84,29.72,0,0,0,0.00
2014-8-31,94.0,80.1,64.8,56.9,53.2,49.4,60,41,25,29.86,29.73,0,0,0,0.00
2014-9-1,96.8,79.6,61.4,57.4,53.2,49.5,66,43,23,29.80,29.66,0,0,0,0.00
2014-9-2,98.6,82.7,64.8,56.4,53.1,48.4,58,38,23,29.76,29.64,0,0,0,0.00
2014-9-3,93.6,77.1,61.6,60.9,56.0,52.0,74,51,27,29.75,29.58,0,0,0,0.00
2014-9-4,93.6,78.4,61.0,59.0,52.8,44.6,73,45,21,29.69,29.61,0,0,0,0.00
2014-9-5,92.7,77.5,61.9,58.5,55.0,52.3,73,48,27,29.83,29.69,0,0,0,0.00
2014-9-6,93.2,78.7,65.0,58.0,52.8,38.4,62,43,26,29.89,29.76,0,0,0,0.00
2014-9-7,92.3,77.5,62.6,53.5,48.1,41.9,58,38,23,29.83,29.69,0,0,0,0.00
2014-9-8,87.5,73.2,60.8,56.0,49.4,40.3,68,46,22,29.87,29.74,0,0,0,0.00
2014-9-9,87.1,70.8,56.5,54.4,49.9,45.7,74,50,28,29.95,29.81,0,0,0,0.00
2014-9-10,93.2,74.3,55.1,55.3,48.0,42.5,64,42,23,29.91,29.75,0,0,0,0.00
2014-9-11,96.7,77.9,58.5,54.6,48.7,43.9,61,39,21,29.86,29.73,0,0,0,0.00
2014-9-12,98.6,79.2,59.6,55.4,49.7,45.6,62,39,19,29.84,29.71,0,0,0,0.00
2014-9-13,99.4,81.5,63.5,56.1,51.4,47.1,57,38,20,29.78,29.66,0,0,0,0.00
2014-9-14,98.1,81.5,66.4,57.6,53.3,48.4,58,40,23,29.79,29.70,0,0,0,0.00
2014-9-15,96.7,80.7,68.2,57.2,51.0,42.9,55,38,20,29.86,29.74,0,0,0,0.00
2014-9-16,89.6,75.4,62.5,55.8,50.1,44.8,65,43,23,29.87,29.73,0,0,0,0.00
2014-9-17,92.7,77.1,62.3,55.2,49.2,45.4,56,40,23,29.77,29.65,0,0,0,0.00
2014-9-18,86.6,75.8,67.3,64.9,59.9,55.1,73,59,44,29.85,29.75,0,0,0,0.00
2014-9-19,86.8,73.6,59.9,62.8,57.7,53.3,80,60,38,29.85,29.75,0,0,0,0.00
2014-9-20,90.0,76.7,62.3,62.7,58.4,54.0,77,55,39,29.88,29.76,0,0,0,0.00
2014-9-21,82.1,72.3,64.6,60.9,57.8,55.4,74,61,47,29.95,29.82,0,0,0,0.00
2014-9-22,86.9,71.5,61.4,62.6,58.6,55.3,82,65,43,30.00,29.87,0,0,0,0.00
2014-9-23,90.0,76.5,64.4,59.3,55.2,50.2,69,50,35,29.95,29.82,0,0,0,0.00
2014-9-24,87.1,74.4,64.6,64.2,60.0,56.8,84,63,37,29.93,29.77,0,0,0,0.00
2014-9-25,71.6,66.5,60.5,60.7,57.2,52.5,86,73,56,30.00,29.84,0,0,0,0.36
2014-9-26,78.3,65.6,52.9,58.8,53.3,47.9,84,66,49,29.97,29.82,0,0,0,0.00
2014-9-27,77.9,68.4,57.8,58.0,54.4,50.4,81,62,47,29.89,29.74,0,0,0,0.00
2014-9-28,75.2,64.9,58.3,59.4,54.9,52.0,81,70,56,29.91,29.77,0,0,0,0.00
2014-9-29,80.3,66.4,52.4,59.2,54.4,48.2,87,67,46,29.98,29.86,0,0,0,0.00
2014-9-30,81.2,69.4,58.0,59.6,55.7,49.8,82,63,45,29.92,29.78,0,0,0,0.00
2014-10-1,83.5,68.6,56.3,49.8,45.9,42.6,67,47,25,29.89,29.79,0,0,0,0.00
2014-10-2,85.3,67.1,50.0,49.8,46.1,40.7,72,50,26,30.03,29.88,0,0,0,0.00
2014-10-3,89.8,70.4,53.1,53.8,48.0,44.6,75,49,23,30.08,29.96,0,0,0,0.00
2014-10-4,90.0,71.8,54.9,52.8,48.4,45.1,71,47,22,30.02,29.87,0,0,0,0.00
2014-10-5,90.0,72.4,55.1,54.6,49.9,45.5,71,48,26,29.94,29.82,0,0,0,0.00
2014-10-6,90.4,73.3,57.2,54.5,50.1,46.2,68,47,26,29.90,29.77,0,0,0,0.00
2014-10-7,90.7,72.8,56.9,56.8,51.8,46.8,70,50,30,29.87,29.75,0,0,0,0.00
2014-10-8,91.1,71.7,54.7,53.5,48.0,42.2,73,47,19,29.87,29.75,0,0,0,0.00
2014-10-9,85.3,70.0,55.1,52.6,47.2,42.0,64,46,29,29.89,29.79,0,0,0,0.00
2014-10-10,85.0,68.5,52.7,54.1,49.3,43.3,71,52,32,30.00,29.89,0,0,0,0.00
2014-10-11,83.9,68.1,53.8,56.4,51.4,46.1,77,57,37,30.01,29.89,0,0,0,0.00
2014-10-12,86.2,69.9,57.6,50.1,43.0,36.5,71,42,18,29.97,29.85,0,0,0,0.00
2014-10-13,89.6,70.5,52.0,49.9,43.3,37.9,63,40,23,29.95,29.82,0,0,0,0.00
2014-10-14,79.4,68.4,59.6,56.4,50.8,38.7,69,54,32,29.88,29.77,0,0,0,0.00
2014-10-15,75.1,66.1,59.9,60.9,55.6,52.2,85,70,52,30.02,29.82,0,0,0,0.15
2014-10-16,76.7,64.0,54.2,58.1,53.4,49.4,85,70,50,30.00,29.87,0,0,0,0.00
2014-10-17,76.9,63.4,53.1,53.6,50.1,47.4,82,64,42,29.95,29.88,0,0,0,0.00
2014-10-18,77.9,64.2,52.6,55.1,51.1,46.6,81,64,44,29.96,29.82,0,0,0,0.00
2014-10-19,80.1,65.7,51.8,57.4,51.8,46.2,82,63,41,29.89,29.78,0,0,0,0.00
2014-10-20,75.6,64.9,54.5,60.3,53.9,45.4,85,68,55,30.01,29.84,0,0,0,0.00
2014-10-21,71.5,58.9,48.4,53.7,47.3,42.0,87,67,43,30.08,29.95,0,0,0,0.00
2014-10-22,76.0,61.0,47.9,52.4,46.5,41.6,83,61,38,30.04,29.95,0,0,0,0.00
2014-10-23,77.9,64.9,55.6,55.3,50.4,45.4,81,60,45,30.04,29.94,0,0,0,0.00
2014-10-24,77.4,61.4,47.5,55.9,50.3,43.2,88,69,45,29.97,29.81,0,0,0,0.00
2014-10-25,70.2,63.4,59.4,57.2,54.4,52.2,83,73,60,30.09,29.87,0,0,0,0.02
2014-10-26,69.5,58.4,48.4,56.3,46.6,40.0,89,68,39,30.13,29.98,0,0,0,0.00
2014-10-27,69.5,54.2,40.9,49.6,43.6,36.3,87,69,47,30.03,29.96,0,0,0,0.00
2014-10-28,73.8,57.3,43.9,52.0,44.9,39.7,86,66,39,30.10,30.01,0,0,0,0.00
2014-10-29,76.7,60.7,47.5,53.8,48.1,41.6,84,65,42,30.09,29.95,0,0,0,0.00
2014-10-30,79.7,64.5,51.5,54.9,49.9,46.2,83,62,39,29.96,29.80,0,0,0,0.00
2014-10-31,67.9,61.3,56.7,58.8,53.7,50.0,87,76,63,29.87,29.67,0,0,0,0.00
2014-11-1,65.9,57.3,50.8,53.0,49.5,44.0,89,76,57,30.01,29.66,0,0,0,0.04
2014-11-2,65.7,52.3,40.5,48.4,42.6,36.8,88,71,45,30.13,30.00,0,0,0,0.00
2014-11-3,65.2,51.2,38.9,47.7,41.4,34.5,86,71,48,30.24,30.12,0,0,0,0.00
2014-11-4,68.0,54.6,43.6,49.7,44.5,38.7,85,70,48,30.32,30.20,0,0,0,0.00
2014-11-5,67.3,52.7,45.7,53.0,45.8,41.5,87,78,60,30.22,29.91,0,0,0,0.29
2014-11-6,74.9,59.8,49.5,54.4,49.5,44.8,86,70,45,30.22,30.14,5,0,5,0.00
2014-11-7,73.4,58.2,45.7,54.7,48.3,41.5,85,71,48,30.22,30.07,5,0,5,0.00
2014-11-8,74.5,59.6,48.4,55.7,49.7,44.1,86,71,50,30.14,30.00,3,0,3,0.00
2014-11-9,75.6,59.7,47.3,55.5,49.6,43.0,87,71,49,30.02,29.79,4,0,4,0.00
2014-11-10,72.4,57.7,46.1,54.2,48.2,41.9,86,72,50,29.84,29.75,4,0,4,0.00
2014-11-11,67.7,59.2,49.1,54.9,50.2,43.8,88,73,59,29.96,29.79,7,2,7,0.00
2014-11-12,65.9,58.1,51.7,50.5,47.5,44.4,79,68,53,30.02,29.95,4,1,5,0.00
2014-11-13,60.3,57.8,54.4,57.1,54.1,49.1,90,88,76,30.04,29.95,5,1,6,0.30
2014-11-14,64.6,57.0,50.0,57.9,52.8,46.5,92,86,75,30.08,30.02,5,1,6,0.00
2014-11-15,65.5,54.1,46.4,54.7,48.4,43.7,91,82,66,30.18,30.05,5,0,5,0.00
2014-11-16,61.9,51.0,42.3,48.5,41.3,33.8,85,70,56,30.28,30.14,5,1,6,0.00
2014-11-17,61.9,47.4,37.1,46.9,39.2,33.3,89,75,48,30.28,30.13,4,0,4,0.00
2014-11-18,62.8,48.5,36.5,46.4,40.0,32.5,87,74,54,30.20,30.06,4,0,4,0.00
2014-11-19,60.7,52.6,45.5,52.7,47.2,40.8,89,82,71,30.14,30.01,6,1,6,0.06
2014-11-20,56.5,53.9,49.9,53.3,50.9,46.8,91,90,88,30.12,29.97,8,1,8,0.11
2014-11-21,61.4,54.4,47.5,54.4,50.1,45.1,92,86,76,30.13,30.03,7,1,7,0.00
2014-11-22,60.1,54.3,44.5,55.3,50.7,41.6,92,88,82,30.25,30.02,12,4,12,0.26
2014-11-23,58.3,48.1,41.4,50.0,43.4,38.6,92,84,67,30.34,30.23,3,0,4,0.00
2014-11-24,59.9,47.0,36.2,48.0,41.0,33.0,91,80,62,30.44,30.32,5,1,5,0.00
2014-11-25,62.8,49.7,40.0,48.9,42.6,36.6,89,78,56,30.49,30.35,5,0,5,0.00
2014-11-26,64.3,50.0,39.1,52.5,43.9,36.0,91,80,65,30.35,30.21,3,0,3,0.00
2014-11-27,67.0,52.7,43.7,54.0,46.4,39.5,90,80,60,30.22,30.05,4,0,4,0.00
2014-11-28,63.7,51.7,38.9,52.6,44.8,35.5,90,78,58,30.05,29.82,7,1,7,0.00
2014-11-29,58.9,55.1,52.6,55.4,51.7,49.3,92,88,84,29.89,29.76,10,2,10,0.00
2014-11-30,57.4,54.3,52.7,54.9,51.5,50.8,93,90,85,30.06,29.74,7,1,7,0.00
2014-12-1,64.1,56.4,51.1,58.4,52.9,48.5,93,88,79,30.16,29.97,6,0,6,0.00
2014-12-2,57.4,54.6,51.5,55.5,52.5,49.1,94,92,91,29.97,29.72,8,1,8,0.00
2014-12-3,63.9,59.1,56.2,59.0,56.7,54.4,94,92,81,29.90,29.71,17,4,17,0.00
2014-12-4,68.6,59.8,53.8,62.0,56.0,51.0,94,88,74,30.02,29.88,6,2,6,0.15
2014-12-5,66.4,60.3,55.3,60.3,56.0,52.7,92,86,76,30.08,29.97,11,3,11,0.27
2014-12-6,68.6,60.4,52.0,61.0,56.1,49.4,93,86,75,30.23,30.08,8,2,8,0.18
2014-12-7,64.3,54.4,48.2,57.4,50.8,46.3,93,88,77,30.22,30.13,7,1,7,0.00
2014-12-8,64.8,54.6,48.2,56.2,50.6,46.1,93,87,71,30.19,30.12,3,0,3,0.00
2014-12-9,60.7,53.1,48.1,54.5,49.2,45.6,91,87,76,30.22,30.07,6,0,6,0.00
2014-12-10,60.7,55.2,48.4,54.9,51.1,46.0,92,86,69,30.08,29.68,8,2,8,0.00
2014-12-11,60.3,56.0,50.2,54.6,51.0,47.4,92,84,65,29.72,29.50,24,5,24,3.13
2014-12-12,56.0,51.1,48.2,50.0,48.0,46.4,94,89,76,30.07,29.63,5,1,5,0.79
2014-12-13,57.2,49.8,41.8,51.0,46.4,39.1,94,88,75,30.23,30.07,5,1,5,0.00
2014-12-14,54.7,47.6,41.6,48.5,44.1,39.3,93,88,76,30.17,30.01,8,0,8,0.00
2014-12-15,52.6,49.6,47.9,48.3,46.5,45.2,92,89,82,30.04,29.87,11,3,11,0.90
2014-12-16,61.0,54.2,49.5,51.8,48.9,47.0,92,83,66,29.97,29.81,12,4,12,0.61
2014-12-17,56.9,52.2,49.3,51.2,48.1,46.4,91,86,80,30.10,29.91,11,3,11,0.04
2014-12-18,60.5,53.1,49.0,50.8,47.4,45.3,89,81,66,30.19,30.09,6,1,6,0.01
2014-12-19,55.8,53.2,51.5,51.2,48.7,45.6,92,85,69,30.22,30.08,10,3,10,0.60
2014-12-20,59.0,55.0,52.2,53.9,51.6,49.8,92,88,83,30.25,30.13,8,2,8,0.01
2014-12-21,65.2,58.1,49.7,59.2,53.8,47.2,91,86,80,30.28,30.21,7,2,7,0.00
2014-12-22,59.6,52.8,47.2,55.7,50.1,45.0,95,91,85,30.28,30.15,6,1,6,0.00
2014-12-23,61.9,53.8,47.2,55.4,50.4,45.0,94,88,79,30.23,30.12,5,1,5,0.00
2014-12-24,58.0,51.0,44.3,54.9,47.5,39.2,94,88,73,30.12,29.84,9,2,9,0.01
2014-12-25,55.3,44.9,35.6,41.6,36.0,31.2,86,72,49,30.12,30.03,7,2,7,0.01
2014-12-26,55.1,43.7,34.6,38.7,33.5,29.0,82,68,50,30.28,30.10,8,2,8,0.00
2014-12-27,54.0,42.6,33.5,41.4,35.1,28.5,84,75,61,30.40,30.26,4,1,4,0.00
2014-12-28,53.3,42.4,34.4,43.8,36.5,30.8,89,80,66,30.37,30.22,3,0,3,0.00
2014-12-29,47.9,39.6,32.8,41.9,35.4,29.4,89,85,79,30.23,30.10,3,0,3,0.00
2014-12-30,54.5,42.2,32.0,34.5,25.2,14.5,92,57,22,30.30,30.08,19,3,19,0.00
2014-12-31,54.7,41.4,32.8,29.5,24.6,20.6,65,52,37,30.28,30.05,9,2,9,0.00
2015-1-1,49.1,38.2,29.5,35.5,29.0,23.5,79,70,57,30.19,30.10,5,1,5,0.00
2015-1-2,49.9,37.2,27.9,37.5,29.9,23.4,84,75,62,30.23,30.11,4,0,4,0.00